This is the latest recevied weather packets stored in our database for station/object YN1ZGS-13. If no packets are shown the sender has not sent any weather packets the latest 1 day(s).
| Time | Temp. | Humidity | Pressure | Rain* | Wind** | Luminosity | Snow |
|---|---|---|---|---|---|---|---|
| 1778032354 | 30° C | 55% | 1010 hPa | 0 mm | - | - | - |
| 1778031753 | 30° C | 54% | 1010 hPa | 0 mm | - | - | - |
| 1778031153 | 30° C | 52% | 1009 hPa | 0 mm | - | - | - |
| 1778030553 | 30° C | 51% | 1009 hPa | 0 mm | - | - | - |
| 1778029953 | 30° C | 49% | 1009 hPa | 0 mm | - | - | - |
| 1778028752 | 31.11° C | 49% | 1009 hPa | 0 mm | - | - | - |
| 1778028152 | 31.11° C | 48% | 1009 hPa | 0 mm | - | - | - |
| 1778027552 | 28.89° C | 44% | 1009 hPa | 0 mm | - | - | - |
| 1778026351 | 30° C | 44% | 1009 hPa | 0 mm | - | - | - |
| 1778024550 | 31.67° C | 44% | 1009 hPa | 0 mm | - | - | - |
| 1778020348 | 33.33° C | 38% | 1008 hPa | 0 mm | - | - | - |
| 1778018547 | 33.33° C | 38% | 1007 hPa | 0 mm | - | - | - |
| 1778017947 | 33.89° C | 38% | 1007 hPa | 0 mm | - | - | - |
| 1778017346 | 32.78° C | 37% | 1007 hPa | 0 mm | - | - | - |
| 1778016746 | 32.78° C | 37% | 1007 hPa | 0 mm | - | - | - |
| 1778016145 | 33.33° C | 37% | 1008 hPa | 0 mm | - | - | - |
| 1778014344 | 33.33° C | 37% | 1008 hPa | 0 mm | - | - | - |
| 1778011342 | 33.33° C | 42% | 1009 hPa | 0 mm | - | - | - |
| 1778008941 | 32.78° C | 41% | 1010 hPa | 0 mm | - | - | - |
| 1778007740 | 33.33° C | 41% | 1010 hPa | 0 mm | - | - | - |
| 1778006539 | 33.89° C | 41% | 1010 hPa | 0 mm | - | - | - |
| 1778005338 | 31.11° C | 47% | 1011 hPa | 0 mm | - | - | - |
* Rain latest hour (hover to see other rain measurements)
** Current wind speed in m/s (hover to see current wind gust speed)